| time (UTC) | temp C | wind direction | speed KPH | gust KPH | rain 1hr cm | rain 24hr cm | rain mn cm | humidity % | barometer mb |
| 20260905223053 | 12 | 317 | 8.0 | 20.9 | 0.00 | 0.00 | 0.00 | 81 | 1014.6 |
| 20260905221546 | 13 | 253 | 8.0 | 14.5 | 0.00 | 0.00 | 0.00 | 81 | 1014.6 |
| 20260905220048 | 13 | 326 | 8.0 | 27.4 | 0.00 | 0.00 | 0.00 | 80 | 1014.5 |
| 20260905214541 | 13 | 300 | 9.7 | 19.3 | 0.00 | 0.00 | 0.00 | 80 | 1014.4 |
| 20260905213038 | 13 | 329 | 6.4 | 19.3 | 0.00 | 0.00 | 0.00 | 80 | 1014.4 |
| 20260905211536 | 13 | 297 | 8.0 | 17.7 | 0.00 | 0.00 | 0.00 | 79 | 1014.3 |
| 20260905210033 | 13 | 302 | 6.4 | 14.5 | 0.00 | 0.00 | 0.00 | 76 | 1014.1 |
| 20260905204529 | 14 | 297 | 9.7 | 19.3 | 0.00 | 0.03 | 0.00 | 75 | 1014.1 |
| 20260905203027 | 14 | 274 | 8.0 | 22.5 | 0.00 | 0.03 | 0.00 | 74 | 1013.9 |
| 20260905201527 | 14 | 307 | 9.7 | 20.9 | 0.00 | 0.03 | 0.00 | 73 | 1013.7 |
| 20260905200024 | 14 | 281 | 6.4 | 17.7 | 0.00 | 0.03 | 0.00 | 73 | 1013.6 |
| 20260905194522 | 15 | 332 | 11.3 | 25.7 | 0.00 | 0.33 | 0.00 | 74 | 1013.6 |
| 20260905193020 | 15 | 296 | 9.7 | 30.6 | 0.00 | 0.33 | 0.00 | 74 | 1013.6 |
| 20260905191518 | 15 | 259 | 12.9 | 27.4 | 0.00 | 0.33 | 0.00 | 74 | 1013.6 |
| 20260905190016 | 15 | 293 | 6.4 | 17.7 | 0.00 | 0.33 | 0.00 | 77 | 1013.5 |
| 20260905184515 | 15 | 227 | 6.4 | 20.9 | 0.00 | 0.33 | 0.00 | 76 | 1013.6 |
| 20260905183012 | 15 | 247 | 4.8 | 19.3 | 0.00 | 0.33 | 0.00 | 72 | 1013.6 |
| 20260905181512 | 15 | 227 | 4.8 | 14.5 | 0.00 | 0.33 | 0.00 | 70 | 1013.9 |
| 20260905180012 | 16 | 303 | 4.8 | 12.9 | 0.00 | 0.33 | 0.00 | 69 | 1013.7 |
| 20260905174513 | 16 | 291 | 6.4 | 14.5 | 0.00 | 0.33 | 0.00 | 69 | 1013.6 |
| 20260905173020 | 16 | 299 | 6.4 | 12.9 | 0.00 | 0.33 | 0.00 | 69 | 1013.5 |
| 20260905171509 | 16 | 315 | 6.4 | 25.7 | 0.00 | 0.33 | 0.00 | 68 | 1013.4 |
| 20260905170006 | 16 | 276 | 9.7 | 19.3 | 0.00 | 0.33 | 0.00 | 68 | 1013.4 |
| 20260905164505 | 16 | 252 | 8.0 | 19.3 | 0.00 | 0.33 | 0.00 | 67 | 1013.4 |
| 20260905163003 | 16 | 271 | 6.4 | 19.3 | 0.00 | 0.33 | 0.00 | 67 | 1013.1 |
| 20260905161503 | 16 | 278 | 9.7 | 22.5 | 0.00 | 0.33 | 0.00 | 65 | 1013.0 |
| 20260905160003 | 16 | 288 | 8.0 | 22.5 | 0.00 | 0.33 | 0.00 | 64 | 1012.9 |
| 20260905154501 | 17 | 310 | 9.7 | 25.7 | 0.00 | 0.33 | 0.00 | 63 | 1013.0 |
| 20260905153101 | 17 | 335 | 8.0 | 25.7 | 0.00 | 0.33 | 0.00 | 63 | 1013.0 |
| 20260905151600 | 17 | 278 | 17.7 | 35.4 | 0.00 | 0.33 | 0.00 | 59 | 1013.1 |
| 20260905150058 | 18 | 288 | 19.3 | 37.0 | 0.00 | 0.33 | 0.00 | 58 | 1013.0 |
| 20260905144556 | 18 | 322 | 17.7 | 33.8 | 0.00 | 0.33 | 0.00 | 58 | 1012.7 |
| 20260905143055 | 19 | 300 | 17.7 | 33.8 | 0.00 | 0.33 | 0.00 | 57 | 1012.4 |
| 20260905141605 | 19 | 316 | 14.5 | 27.4 | 0.00 | 0.33 | 0.00 | 55 | 1012.2 |
| 20260905140054 | 20 | 314 | 11.3 | 29.0 | 0.00 | 0.33 | 0.00 | 54 | 1012.0 |
| 20260905134552 | 20 | 269 | 11.3 | 27.4 | 0.00 | 0.33 | 0.00 | 53 | 1011.9 |
| 20260905133049 | 20 | 328 | 17.7 | 33.8 | 0.00 | 0.33 | 0.00 | 54 | 1011.9 |
| 20260905131600 | 20 | 279 | 9.7 | 30.6 | 0.00 | 0.33 | 0.00 | 57 | 1012.0 |
| 20260905130049 | 19 | 274 | 9.7 | 22.5 | 0.00 | 0.33 | 0.00 | 57 | 1012.0 |
| 20260905124551 | 20 | 290 | 14.5 | 35.4 | 0.00 | 0.33 | 0.00 | 53 | 1011.9 |
| 20260905123054 | 20 | 249 | 11.3 | 29.0 | 0.00 | 0.33 | 0.00 | 55 | 1011.9 |
| 20260905121545 | 20 | 293 | 17.7 | 32.2 | 0.00 | 0.33 | 0.00 | 53 | 1011.9 |
| 20260905120042 | 19 | 305 | 16.1 | 37.0 | 0.00 | 0.33 | 0.00 | 55 | 1012.0 |
| 20260905114545 | 20 | 308 | 24.1 | 40.2 | 0.00 | 0.33 | 0.00 | 52 | 1012.0 |
| 20260905113042 | 19 | 296 | 17.7 | 43.5 | 0.00 | 0.33 | 0.00 | 53 | 1011.9 |
| 20260905111550 | 20 | 300 | 17.7 | 40.2 | 0.00 | 0.33 | 0.00 | 52 | 1011.7 |
| 20260905110037 | 19 | 323 | 16.1 | 33.8 | 0.00 | 0.33 | 0.00 | 55 | 1011.8 |
| 20260905104535 | 19 | 271 | 24.1 | 41.8 | 0.00 | 0.33 | 0.00 | 55 | 1011.6 |
| 20260905103033 | 19 | 304 | 20.9 | 43.5 | 0.00 | 0.33 | 0.00 | 60 | 1011.5 |
| 20260905101538 | 18 | 290 | 16.1 | 43.5 | 0.00 | 0.33 | 0.00 | 60 | 1011.5 |
| 20260905100028 | 18 | 258 | 11.3 | 27.4 | 0.00 | 0.33 | 0.00 | 64 | 1011.4 |
| 20260905094525 | 17 | 317 | 16.1 | 33.8 | 0.00 | 0.33 | 0.00 | 64 | 1011.2 |
| 20260905093024 | 18 | 297 | 12.9 | 41.8 | 0.00 | 0.33 | 0.00 | 64 | 1011.2 |
| 20260905091522 | 18 | 314 | 19.3 | 40.2 | 0.00 | 0.33 | 0.00 | 59 | 1011.0 |
| 20260905090020 | 17 | 303 | 17.7 | 38.6 | 0.00 | 0.33 | 0.00 | 63 | 1010.9 |
| 20260905084546 | 17 | 309 | 24.1 | 46.7 | 0.00 | 0.33 | 0.00 | 64 | 1011.0 |
| 20260905083020 | 17 | 271 | 16.1 | 35.4 | 0.00 | 0.33 | 0.00 | 65 | 1010.9 |
| 20260905081512 | 17 | 249 | 14.5 | 32.2 | 0.00 | 0.33 | 0.00 | 68 | 1010.7 |
| 20260905080011 | 17 | 283 | 14.5 | 29.0 | 0.00 | 0.33 | 0.00 | 69 | 1010.7 |
| 20260905074509 | 17 | 295 | 9.7 | 32.2 | 0.00 | 0.33 | 0.00 | 71 | 1010.6 |
| 20260905073014 | 17 | 299 | 19.3 | 37.0 | 0.00 | 0.33 | 0.00 | 70 | 1010.4 |
| 20260905071505 | 16 | 315 | 17.7 | 38.6 | 0.00 | 0.33 | 0.00 | 71 | 1010.4 |
| 20260905070004 | 16 | 299 | 12.9 | 37.0 | 0.00 | 0.33 | 0.00 | 72 | 1010.1 |
| 20260905064502 | 16 | 299 | 17.7 | 37.0 | 0.00 | 0.33 | 0.00 | 72 | 1010.1 |
| 20260905063059 | 16 | 283 | 9.7 | 35.4 | 0.00 | 0.33 | 0.00 | 73 | 1009.8 |
| 20260905061616 | 16 | 318 | 12.9 | 32.2 | 0.00 | 0.33 | 0.00 | 72 | 1009.5 |
| 20260905060055 | 16 | 310 | 12.9 | 24.1 | 0.00 | 0.33 | 0.00 | 73 | 1009.5 |
| 20260905054553 | 15 | 309 | 12.9 | 25.7 | 0.00 | 0.33 | 0.00 | 73 | 1009.4 |
| 20260905053058 | 15 | 284 | 9.7 | 27.4 | 0.00 | 0.33 | 0.00 | 73 | 1009.3 |
| 20260905051548 | 15 | 264 | 11.3 | 35.4 | 0.00 | 0.33 | 0.00 | 74 | 1009.1 |
| 20260905050044 | 15 | 309 | 11.3 | 32.2 | 0.00 | 0.33 | 0.00 | 74 | 1008.8 |
| 20260905044642 | 15 | 284 | 9.7 | 30.6 | 0.00 | 0.33 | 0.00 | 74 | 1008.6 |
| 20260905043037 | 15 | 293 | 11.3 | 27.4 | 0.00 | 0.33 | 0.00 | 74 | 1008.3 |
| 20260905041536 | 15 | 325 | 11.3 | 27.4 | 0.00 | 0.33 | 0.00 | 77 | 1008.1 |
| 20260905040032 | 15 | 337 | 14.5 | 27.4 | 0.00 | 0.33 | 0.00 | 79 | 1007.7 |
| 20260905034530 | 15 | 291 | 9.7 | 25.7 | 0.00 | 0.33 | 0.00 | 83 | 1007.5 |
| 20260905033025 | 15 | 290 | 11.3 | 24.1 | 0.00 | 0.33 | 0.00 | 84 | 1007.0 |
| 20260905031531 | 16 | 343 | 16.1 | 29.0 | 0.00 | 0.33 | 0.00 | 78 | 1006.8 |
| 20260905030025 | 16 | 223 | 8.0 | 24.1 | 0.00 | 0.33 | 0.00 | 80 | 1006.5 |
| 20260905024514 | 16 | 313 | 8.0 | 30.6 | 0.00 | 0.33 | 0.00 | 80 | 1006.3 |
| 20260905023024 | 16 | 315 | 12.9 | 24.1 | 0.00 | 0.33 | 0.00 | 81 | 1006.3 |
| 20260905021511 | 16 | 288 | 14.5 | 32.2 | 0.00 | 0.33 | 0.00 | 81 | 1006.4 |
| 20260905020007 | 17 | 253 | 12.9 | 25.7 | 0.00 | 0.33 | 0.00 | 80 | 1006.1 |
| 20260905014507 | 17 | 276 | 9.7 | 24.1 | 0.00 | 0.33 | 0.00 | 80 | 1005.7 |
| 20260905013002 | 17 | 321 | 12.9 | 27.4 | 0.00 | 0.33 | 0.00 | 80 | 1005.8 |
| 20260905011501 | 17 | 272 | 11.3 | 33.8 | 0.00 | 0.33 | 0.00 | 81 | 1005.8 |
| 20260905010103 | 17 | 293 | 9.7 | 25.7 | 0.00 | 0.33 | 0.00 | 82 | 1005.6 |
| 20260905004600 | 17 | 227 | 12.9 | 27.4 | 0.00 | 0.33 | 0.00 | 82 | 1005.2 |
| 20260905003053 | 17 | 293 | 12.9 | 29.0 | 0.00 | 0.33 | 0.00 | 84 | 1004.9 |
| 20260905001550 | 17 | 265 | 12.9 | 27.4 | 0.00 | 0.33 | 0.00 | 85 | 1004.8 |
| 20260905000049 | 17 | 269 | 8.0 | 20.9 | 0.00 | 0.33 | 0.00 | 86 | 1005.0 |
| 20260904234550 | 17 | 226 | 6.4 | 17.7 | 0.00 | 0.33 | 0.00 | 88 | 1004.9 |
| 20260904233058 | 17 | 274 | 6.4 | 22.5 | 0.00 | 0.33 | 0.00 | 88 | 1004.6 |
| 20260904231543 | 17 | 257 | 8.0 | 22.5 | 0.00 | 0.33 | 0.00 | 89 | 1004.7 |
| 20260904230043 | 17 | 315 | 9.7 | 20.9 | 0.00 | 0.33 | 0.00 | 89 | 1004.9 |
| 20260904224545 | 17 | 303 | 4.8 | 14.5 | 0.00 | 0.41 | 0.00 | 89 | 1004.8 |